Starlink 5580

operational
NORAD ID: 55748 Int'l Des: 2023-028 Owner: SPXS Country: US Constellation: starlink
LEOCIRCULAR

About Starlink 5580

Description loading...

Live Position

Loading 3D Globe...

Upcoming Passes

Altitude History

Altitude vs Time

uPlot chart will show altitude changes over time

Two-Line Element Set

1 55748U 23028H 25352.67303808 -.00000204 00000-0 -93102-5 0 9994
2 55748 70.0004 88.7691 0003393 268.8156 91.2615 14.98329413153901
Epoch: Dec 18, 2025 • Age: 14 hours

Current Status

Altitude 576.1 km
Velocity 7.57 km/s
Sub-Earth Point -10.85°S, 102.66°W
Launch Date Mar 3, 2023
Age 2.7 years
Type internet

Technical Details

Classification Payload
Mass 305.00 kg
Dry Mass 290.00 kg
Total Mass 305.00 kg
Length 0.20 m
Diameter 2.80 m
Span 9.00 m
Shape Box + pan
Manufacturer SPXS
Bus Type Starlink
Phase Status In Orbit
Owner/State SPXS/US

Large Constellations

Loading constellations...